Location: Buena Vista
(37.7110°N, 119.7938°W)
Time: 19:32:27
(UTC+00:00)

CAS-4A - Visible Passes

Search period start: 08 October 2024 00:00
Search period end: 18 October 2024 00:00
Orbit: 452 x 468 km, 43.0° (Epoch: 08 October)

Date Brightness Start Highest point End Pass type
(mag) Time Alt. Az. Time Alt. Az. Time Alt. Az.
08 Oct ? 12:12:30 22° SSE 12:12:30 22° SSE 12:14:08 10° SE visible
13 Oct ? 02:36:41 10° SSE 02:37:39 12° SSE 02:37:39 12° SSE visible
14 Oct ? 02:01:27 10° SSE 02:02:05 10° SE 02:02:41 10° SE visible
14 Oct ? 03:36:21 10° SW 03:37:17 17° SW 03:37:17 17° SW visible
15 Oct ? 02:59:51 10° SW 03:02:50 46° S 03:02:50 46° S visible
16 Oct ? 02:23:12 10° SW 02:26:36 42° SSE 02:28:06 27° E visible
16 Oct ? 04:01:25 10° W 04:01:46 12° W 04:01:46 12° W visible
17 Oct ? 01:46:23 10° SW 01:49:41 35° SSE 01:52:59 10° E visible
17 Oct ? 03:24:22 10° W 03:26:43 35° WNW 03:26:43 35° WNW visible
